Location: Normandy Village
(37.8755°N, 122.2655°W)
Time: 02:49:06
(UTC+00:00)

Okean 1-7 - Pass Details

Date: 22 September 2019
Orbit: 590 x 620 km, 82.5° (Epoch: 15 October)

Event Time Altitude Azimuth Distance (km) Brightness Sun altitude
Exits shadow 12:04:05 - 170° (S) 2,060 5.6 -22.6°
Reaches altitude 10° 12:04:17 10° 169° (S) 1,978 5.5 -22.6°
Maximum altitude 12:08:33 52° 93° (E) 772 3.8 -21.8°
Drops below altitude 10° 12:12:49 10° 18° (NNE) 1,986 6.1 -21.0°
Sets 12:15:05 0° 13° (NNE) 2,892 6.9 -20.6°
